Reflectivity
-20 -20 -20 10 -20 -4 13 4 -20 -20 -20 -20 -20 -20 -20 -20 -20 -20 -20 -20 8 17 16 -2 17 23 15 -20 -20 -20 -20 4 -20
-20 -20 -9 5 -17 6 -14 -20 -20 -20 -20 -20 -20 -20 -20 -20 -20 -20 -20 -10 18 4 9 -15 2 5 10 11 19 19 17 18 17
-20 -20 -20 -4 -3 -20 -20 -20 -20 -20 -20 -20 -20 -20 -20 -20 -20 -20 -20 13 -11 -20 -20 -20 1 -6 -2 -20 -14 5 10 12 1
-20 -20 -20 -20 -20 -20 -20 -20 -20 -20 -20 -20 -20 -20 -20 -20 -20 -20 -20 1 -20 -20 0 11 -4 6 -20 -20 -20 -20 -13 12 2
-20 -20 -20 -20 -20 -20 -20 -20 -20 -20 -20 -20 -20 -20 -20 -20 -20 -20 -20 -20 -20 -19 4 -7 15 -20 -20 -20 -20 -20 -20 -20 -20
-20 -20 -20 -20 -20 -20 -20 -20 -20 -20 -20 -20 -20 -20 -20 -20 -20 -20 -20 -20 -20 -4 -20 -20 -20 -20 -20 -20 -20 -20 -20 -20 -20
-20 -20 -20 -20 -20 -20 -20 -20 -20 -20 -20 -20 -20 -20 -20 -20 -20 -20 -20 -20 8 -20 -20 -20 -20 -20 -20 -20 -20 -20 -20 -20 -20
-20 -20 -20 -20 -20 -20 -19 -20 -20 -20 -20 -20 -20 -20 -20 -20 -20 -20 -20 -20 -18 -20 -20 -20 -20 -20 -20 -20 -20 -20 -20 -20 -20
-20 -20 -20 -20 -20 -20 -20 -20 -20 -20 -20 -20 -20 -20 -20 -20 -20 -20 -20 -19 -20 -20 -20 -20 -20 -20 -20 -20 -20 -20 -20 -20 -20
-20 -20 -20 -20 -20 -20 -20 -20 -20 -20 -20 -20 -20 -20 -20 -20 -20 -20 -20 -20 -20 -20 -20 -20 -20 -20 -20 -20 -20 -20 -20 -20 -20
-20 -20 -20 -20 -20 -20 -20 -20 -20 -20 -20 -20 -20 -20 -20 -20 -20 -20 -20 -20 -20 -20 -20 -20 -20 -20 -20 -20 -20 -20 -20 -20 -20
-20 -20 -20 -20 -20 -20 -20 -20 -20 -20 -20 -20 -20 -20 -20 -20 -20 -20 -20 -20 -20 -20 -20 -20 -20 -20 -20 -20 -20 -20 -20 -20 -20
-20 -20 -20 -20 -20 -20 -20 -20 -20 -20 -20 -20 -20 -20 -20 -20 -20 -20 -20 -20 -20 -20 -20 -20 -20 -20 -20 -20 -20 -20 -20 -20 -20
-20 -20 -20 -20 -20 -20 -20 -20 -20 -20 -20 -20 -20 -20 -20 -20 -20 -20 -20 -20 -20 -20 -20 -20 -20 -20 -20 -20 -20 -20 -20 -20 -20
-20 -20 -20 -20 -20 -20 -20 -20 -20 -20 -20 -20 -20 -20 -20 -20 -20 -20 -20 -20 -20 -20 -20 -20 -20 -20 -20 -20 -20 -20 -20 -20 -20
-20 -20 -20 -20 -20 -20 -20 -20 -20 -20 -20 -20 -20 -20 -20 -20 -20 -20 -20 -20 -20 -20 -20 -20 -20 -20 -20 -20 -20 -20 -20 -20 -20
-20 -20 -20 -13 -20 -20 -20 -20 -20 -20 -20 -20 -20 -20 -20 -20 -20 -20 -20 -20 -20 -20 -20 -20 -20 -20 -20 -20 -20 -20 -20 -20 -20
-19 -20 -20 -15 -20 -20 -20 -2 -20 -13 -20 -13 -20 -20 -20 -20 -20 -20 -20 -20 -20 -20 -20 -20 -20 -20 -20 -20 -20 -20 -20 -20 -20
-20 -9 18 -13 -20 -20 21 -16 -13 20 15 19 8 -20 -11 -20 -20 -20 -20 -20 -20 -20 -20 -20 -20 -20 -20 -20 -20 -20 -20 -20 -20
27 -16 -17 23 -20 24 24 19 18 9 14 1 23 16 7 -0 -20 -20 -20 -20 -20 -20 -20 -20 -20 -20 -20 -20 -20 -20 -20 -20 -20
Wind_Speed
10 10 6 9 14 13 12 13 11 10 8 9 8 7 7 5 4 3 2 2 3 7 9 10 13 7 10 11 3 2 3 2 4
10 10 7 9 10 9 9 9 8 8 6 7 6 6 6 5 3 2 1 2 10 11 12 12 13 14 15 17 17 17 10 10 9
10 11 10 10 10 8 7 6 6 7 6 6 6 6 5 5 4 1 1 1 11 10 9 9 11 14 13 14 15 16 16 17 19
10 10 11 10 9 8 7 6 6 5 6 7 6 6 7 5 3 3 2 7 10 9 11 13 14 13 14 15 14 14 13 15 15
10 8 8 9 9 8 7 6 6 6 7 6 5 6 9 5 4 3 1 7 9 9 11 12 11 13 14 13 13 13 13 14 14
7 7 6 7 7 7 6 6 6 7 7 6 7 7 3 4 3 1 4 7 8 12 10 11 12 12 12 12 12 12 13 13 13
5 5 7 6 5 5 5 5 6 6 3 3 6 3 4 3 2 1 3 6 12 11 11 10 10 11 11 10 11 11 11 12 12
3 2 2 2 4 1 2 4 3 3 3 3 4 4 4 2 2 3 3 7 11 11 10 9 9 10 9 10 10 10 10 11 11
3 3 4 3 2 3 2 2 3 3 4 5 5 4 3 2 1 3 3 4 10 10 9 9 9 9 8 9 9 9 9 10 10
4 4 4 3 3 3 3 3 3 4 4 4 5 4 3 3 1 1 8 10 10 8 9 8 8 8 7 8 8 8 9 9 9
5 4 4 3 3 3 4 4 4 4 3 4 3 3 3 3 3 2 3 10 9 8 8 7 7 7 7 6 7 7 7 8 8
6 5 4 4 4 5 4 4 4 4 3 4 4 3 3 3 3 3 3 4 8 8 7 7 7 6 6 6 6 6 5 6 6
6 5 5 5 4 4 4 4 4 3 3 2 3 3 3 3 3 2 2 3 3 5 7 6 6 6 6 6 6 6 5 4 5
8 6 5 6 5 4 5 3 3 3 3 3 2 2 3 3 3 3 3 3 3 2 5 7 6 6 6 6 6 6 7 6 5
9 6 6 7 5 4 4 4 2 3 4 3 3 2 1 2 3 4 2 3 3 2 4 3 3 5 5 6 7 7 9 7 7
10 7 7 7 8 9 8 4 4 2 3 4 2 2 2 2 1 2 2 3 3 3 3 2 2 3 6 6 7 9 10 9 9
11 9 8 9 6 7 9 6 4 3 4 4 2 1 2 1 1 1 2 3 3 3 3 3 3 3 2 4 7 7 8 10 11
12 10 9 10 9 10 10 6 6 5 2 3 4 2 5 1 1 0 1 4 3 3 2 3 3 4 3 4 5 7 9 10 12
13 12 11 10 7 9 8 7 5 5 4 2 1 2 3 4 1 1 0 2 3 3 2 1 3 4 3 5 7 9 11 13 14
13 12 11 9 7 8 10 10 7 4 5 4 3 2 1 2 3 3 2 1 2 2 2 3 3 4 3 2 5 11 14 16 17
Wind_Direction
141 140 145 105 105 105 113 109 114 108 103 113 111 89 83 94 118 123 302 344 45 55 67 56 62 62 38 35 142 316 303 320 325
144 146 138 137 107 113 110 113 110 110 109 118 111 91 82 112 115 119 314 308 72 60 63 57 62 61 57 59 55 47 52 41 32
147 150 151 144 143 135 124 121 115 110 110 112 102 87 81 108 102 103 353 12 69 64 56 62 70 60 56 54 47 39 44 45 48
150 153 159 163 156 151 143 142 135 133 118 115 111 99 99 102 96 64 32 70 74 68 75 77 65 61 57 54 53 51 50 47 43
151 153 160 161 159 155 154 150 143 126 111 110 105 100 97 95 82 56 32 86 78 82 77 73 68 62 60 56 52 50 49 49 48
150 154 166 160 160 161 163 159 134 104 93 82 81 107 102 97 83 57 54 95 95 86 76 76 73 65 60 56 52 49 48 47 44
155 166 173 166 165 167 174 155 118 96 88 67 72 80 96 92 85 7 56 114 107 91 84 80 76 71 62 57 55 50 46 43 41
150 151 173 151 158 135 104 88 87 118 111 91 99 103 96 81 45 355 35 133 119 99 93 87 81 74 66 58 53 47 46 39 36
176 174 177 163 148 151 121 105 94 97 104 117 112 108 111 103 52 334 4 130 115 110 102 94 87 78 68 61 54 46 43 33 29
173 180 172 170 157 162 148 128 117 111 114 109 122 119 109 107 80 355 96 99 112 109 104 94 83 76 68 61 52 45 40 31 29
184 174 178 177 173 167 160 154 138 126 124 107 111 118 114 105 92 60 57 104 116 114 106 101 89 73 72 63 51 47 39 26 23
181 178 175 181 173 166 135 116 116 119 102 109 99 112 129 128 120 94 78 75 102 120 115 104 92 71 64 51 37 40 33 18 10
187 179 187 168 164 160 147 146 127 123 141 139 136 127 124 133 126 94 81 79 65 100 108 97 82 68 50 40 32 19 2 351 346
185 186 187 161 162 164 161 143 139 155 149 152 118 105 127 156 143 145 129 113 96 89 103 94 73 48 40 28 12 4 352 337 327
186 188 175 164 159 152 153 140 96 143 150 117 105 90 99 138 166 173 164 152 132 120 102 81 33 37 16 6 358 350 344 331 314
192 190 178 170 173 179 166 130 147 113 153 112 37 33 63 126 171 157 166 161 139 134 118 97 56 6 4 359 341 334 328 323 310
190 185 187 182 159 154 168 155 135 114 181 141 107 178 326 22 92 152 196 182 132 139 105 100 75 50 22 332 344 332 321 312 307
194 181 180 187 179 181 179 168 146 146 176 240 146 115 219 143 9 195 213 163 147 139 112 92 57 61 51 31 357 346 342 325 316
189 187 187 187 178 179 180 157 150 144 160 159 255 54 136 165 199 311 249 161 174 168 163 84 97 95 71 36 6 357 338 324 316
189 184 177 173 167 177 174 167 165 173 153 147 157 223 89 80 131 183 229 305 210 212 165 150 141 111 75 30 348 345 330 321 316